CPA769 VHHH-VVTS

Flight info

Callsign CPA769
Flight time 1h 56m
Altitude 36000
Route N0490F360 PECA3X PECAN V12 EPDOS L642 EPKAL/K0909F360 L642 SOSPA W15 VETOM
Aircraft B77W/H-SDE3GHIJ2J3J4J7M3P2RWXYZ/LB1D1

Departure

Time 2026-05-05 06:53
Airport Hong Kong International Airport (VHHH)

Arrival

Time 2026-05-05 08:49
Airport Tan Son Nhat International Airport (VVTS)
Time Latitude Longitude Altitude Speed Heading
2026-05-05 05:56 22.31196 113.93481 40 ft 0 kts 71°
2026-05-05 06:40 22.31195 113.93477 39 ft 3 kts 70°
2026-05-05 06:40 22.31184 113.93450 40 ft 4 kts 59°
2026-05-05 06:40 22.31170 113.93425 37 ft 4 kts 67°
2026-05-05 06:40 22.31163 113.93403 38 ft 4 kts 90°
2026-05-05 06:41 22.31171 113.93379 37 ft 4 kts 143°
2026-05-05 06:41 22.31193 113.93368 36 ft 4 kts 161°
2026-05-05 06:41 22.31215 113.93360 38 ft 1 kts 161°
2026-05-05 06:45 22.31204 113.93364 36 ft 9 kts 161°
2026-05-05 06:45 22.31133 113.93390 40 ft 11 kts 161°
2026-05-05 06:45 22.31058 113.93418 40 ft 11 kts 161°
2026-05-05 06:46 22.30992 113.93388 40 ft 12 kts 234°
2026-05-05 06:46 22.30952 113.93313 40 ft 12 kts 242°
2026-05-05 06:46 22.30916 113.93235 40 ft 12 kts 248°
2026-05-05 06:46 22.30878 113.93118 40 ft 24 kts 251°
2026-05-05 06:47 22.30817 113.92927 40 ft 27 kts 251°
2026-05-05 06:47 22.30754 113.92732 40 ft 27 kts 250°
2026-05-05 06:47 22.30691 113.92540 40 ft 27 kts 250°
2026-05-05 06:47 22.30628 113.92345 40 ft 27 kts 251°
2026-05-05 06:48 22.30565 113.92150 40 ft 27 kts 251°
2026-05-05 06:48 22.30502 113.91956 40 ft 27 kts 251°
2026-05-05 06:48 22.30439 113.91761 40 ft 27 kts 251°
2026-05-05 06:48 22.30377 113.91566 40 ft 27 kts 251°
2026-05-05 06:49 22.30314 113.91371 40 ft 27 kts 251°
2026-05-05 06:49 22.30250 113.91177 40 ft 27 kts 250°
2026-05-05 06:49 22.30188 113.90982 40 ft 27 kts 251°
2026-05-05 06:49 22.30126 113.90787 40 ft 27 kts 250°
2026-05-05 06:50 22.30062 113.90593 40 ft 27 kts 251°
2026-05-05 06:50 22.29999 113.90399 40 ft 27 kts 251°
2026-05-05 06:50 22.29936 113.90204 40 ft 27 kts 250°
2026-05-05 06:50 22.29874 113.90010 40 ft 27 kts 251°
2026-05-05 06:51 22.29816 113.89831 40 ft 15 kts 251°
2026-05-05 06:51 22.29768 113.89759 40 ft 10 kts 184°
2026-05-05 06:51 22.29697 113.89780 40 ft 11 kts 162°
2026-05-05 06:51 22.29636 113.89815 40 ft 10 kts 119°
2026-05-05 06:52 22.29640 113.89854 40 ft 0 kts 72°
2026-05-05 06:52 22.29683 113.89994 40 ft 58 kts 70°
2026-05-05 06:52 22.29904 113.90675 40 ft 134 kts 71°
2026-05-05 06:53 22.30283 113.91849 208 ft 179 kts 71°
2026-05-05 06:53 22.30680 113.93096 908 ft 177 kts 71°
2026-05-05 06:53 22.31084 113.94356 1566 ft 174 kts 72°
2026-05-05 06:53 22.31486 113.95607 2290 ft 184 kts 72°
2026-05-05 06:54 22.31904 113.96925 2839 ft 187 kts 73°
2026-05-05 06:54 22.32331 113.98257 3420 ft 190 kts 72°
2026-05-05 06:54 22.32781 113.99650 3895 ft 202 kts 72°
2026-05-05 06:54 22.33243 114.01096 4489 ft 206 kts 73°
2026-05-05 06:55 22.33724 114.02658 4674 ft 234 kts 74°
2026-05-05 06:55 22.33925 114.04461 4877 ft 255 kts 101°
2026-05-05 06:55 22.33273 114.06285 5296 ft 268 kts 127°
2026-05-05 06:55 22.31952 114.07718 5956 ft 273 kts 149°
2026-05-05 06:56 22.30217 114.08529 6678 ft 273 kts 174°
2026-05-05 06:56 22.28338 114.08626 7386 ft 272 kts 182°
2026-05-05 06:56 22.26421 114.08624 8221 ft 279 kts 182°
2026-05-05 06:56 22.24458 114.08617 9173 ft 283 kts 184°
2026-05-05 06:57 22.22489 114.08610 10143 ft 284 kts 184°
2026-05-05 06:57 22.20475 114.08606 10694 ft 299 kts 184°
2026-05-05 06:57 22.18294 114.08598 10883 ft 327 kts 183°
2026-05-05 06:57 22.15925 114.08594 11080 ft 354 kts 183°
2026-05-05 06:58 22.13392 114.08597 11515 ft 371 kts 183°
2026-05-05 06:58 22.10771 114.08608 12251 ft 380 kts 183°
2026-05-05 06:58 22.08107 114.08623 13161 ft 385 kts 183°
2026-05-05 06:58 22.05412 114.08638 14036 ft 390 kts 183°
2026-05-05 06:59 22.02682 114.08653 14865 ft 395 kts 183°
2026-05-05 06:59 21.99920 114.08669 15813 ft 399 kts 184°
2026-05-05 06:59 21.97128 114.08684 16768 ft 404 kts 184°
2026-05-05 06:59 21.94299 114.08697 17603 ft 409 kts 184°
2026-05-05 07:00 21.91434 114.08709 18389 ft 415 kts 185°
2026-05-05 07:00 21.88527 114.08723 19051 ft 420 kts 185°
2026-05-05 07:00 21.85583 114.08737 19636 ft 426 kts 184°
2026-05-05 07:00 21.82597 114.08751 20219 ft 432 kts 184°
2026-05-05 07:01 21.79576 114.08767 20820 ft 437 kts 184°
2026-05-05 07:01 21.76521 114.08783 21407 ft 442 kts 185°
2026-05-05 07:01 21.73431 114.08799 22004 ft 447 kts 185°
2026-05-05 07:01 21.70307 114.08814 22579 ft 452 kts 185°
2026-05-05 07:02 21.67148 114.08818 23125 ft 456 kts 186°
2026-05-05 07:02 21.63979 114.08578 23647 ft 456 kts 192°
2026-05-05 07:02 21.60859 114.07987 24099 ft 455 kts 199°
2026-05-05 07:02 21.57783 114.07153 24600 ft 457 kts 199°
2026-05-05 07:03 21.54696 114.06311 25098 ft 459 kts 199°
2026-05-05 07:03 21.51622 114.05493 25567 ft 463 kts 199°
2026-05-05 07:03 21.48486 114.04678 26002 ft 466 kts 199°
2026-05-05 07:03 21.45309 114.03877 26460 ft 471 kts 197°
2026-05-05 07:04 21.42055 114.03301 26895 ft 478 kts 191°
2026-05-05 07:04 21.38711 114.03050 27326 ft 483 kts 188°
2026-05-05 07:04 21.35340 114.02854 27760 ft 487 kts 188°
2026-05-05 07:04 21.31948 114.02655 28184 ft 490 kts 188°
2026-05-05 07:05 21.28537 114.02444 28551 ft 493 kts 188°
2026-05-05 07:05 21.25102 114.02221 28923 ft 496 kts 188°
2026-05-05 07:05 21.21649 114.01989 29282 ft 499 kts 188°
2026-05-05 07:05 21.18174 114.01752 29642 ft 502 kts 188°
2026-05-05 07:06 21.14682 114.01514 30030 ft 503 kts 188°
2026-05-05 07:06 21.11197 114.01278 30468 ft 502 kts 188°
2026-05-05 07:06 21.07722 114.01044 30936 ft 500 kts 188°
2026-05-05 07:06 21.04252 114.00809 31372 ft 499 kts 188°
2026-05-05 07:07 21.00794 114.00574 31796 ft 498 kts 188°
2026-05-05 07:07 20.97334 114.00339 32183 ft 498 kts 188°
2026-05-05 07:07 20.93882 114.00047 32549 ft 497 kts 191°
2026-05-05 07:07 20.90489 113.99442 32955 ft 492 kts 197°
2026-05-05 07:08 20.87149 113.98652 33387 ft 491 kts 197°
2026-05-05 07:08 20.83824 113.97848 33807 ft 490 kts 197°
2026-05-05 07:08 20.80504 113.97045 34193 ft 489 kts 197°
2026-05-05 07:08 20.77177 113.96249 34538 ft 489 kts 197°
2026-05-05 07:09 20.73854 113.95463 34867 ft 489 kts 197°
2026-05-05 07:09 20.70531 113.94684 35194 ft 489 kts 197°
2026-05-05 07:09 20.67205 113.93910 35451 ft 490 kts 197°
2026-05-05 07:09 20.63865 113.93134 35688 ft 492 kts 197°
2026-05-05 07:10 20.60520 113.92358 35856 ft 493 kts 197°
2026-05-05 07:10 20.53815 113.90806 35933 ft 491 kts 197°
2026-05-05 07:11 20.47157 113.89267 35932 ft 488 kts 197°
2026-05-05 07:11 20.40540 113.87735 35936 ft 486 kts 197°
2026-05-05 07:12 20.33981 113.86216 35939 ft 485 kts 197°
2026-05-05 07:12 20.27372 113.84688 35934 ft 486 kts 197°
2026-05-05 07:13 20.20760 113.83160 35937 ft 487 kts 197°
2026-05-05 07:13 20.14123 113.81629 35934 ft 488 kts 197°
2026-05-05 07:14 20.07475 113.80096 35926 ft 489 kts 196°
2026-05-05 07:14 20.00819 113.78564 35932 ft 490 kts 196°
2026-05-05 07:15 19.94157 113.77031 35933 ft 490 kts 196°
2026-05-05 07:15 19.87490 113.75498 35932 ft 490 kts 196°
2026-05-05 07:16 19.80822 113.73966 35926 ft 490 kts 196°
2026-05-05 07:16 19.74150 113.72435 35922 ft 490 kts 196°
2026-05-05 07:17 19.67476 113.70904 35928 ft 491 kts 196°
2026-05-05 07:17 19.60801 113.69375 35924 ft 491 kts 196°
2026-05-05 07:18 19.54122 113.67846 35922 ft 491 kts 196°
2026-05-05 07:18 19.47442 113.66317 35916 ft 491 kts 196°
2026-05-05 07:19 19.40757 113.64790 35918 ft 491 kts 196°
2026-05-05 07:19 19.34130 113.63276 35921 ft 491 kts 196°
2026-05-05 07:20 19.27451 113.61752 35921 ft 491 kts 196°
2026-05-05 07:20 19.20774 113.60230 35917 ft 491 kts 196°
2026-05-05 07:21 19.14099 113.58709 35919 ft 490 kts 196°
2026-05-05 07:21 19.07435 113.57192 35919 ft 490 kts 196°
2026-05-05 07:22 19.00766 113.55677 35913 ft 490 kts 195°
2026-05-05 07:22 18.94008 113.54582 35917 ft 492 kts 191°
2026-05-05 07:23 18.87215 113.53660 35909 ft 492 kts 191°
2026-05-05 07:23 18.80427 113.52716 35914 ft 492 kts 191°
2026-05-05 07:24 18.73649 113.51752 35912 ft 492 kts 191°
2026-05-05 07:24 18.66870 113.50786 35910 ft 492 kts 191°
2026-05-05 07:25 18.60098 113.49787 35907 ft 490 kts 195°
2026-05-05 07:25 18.53759 113.47441 35915 ft 480 kts 211°
2026-05-05 07:26 18.48236 113.43602 35919 ft 474 kts 220°
2026-05-05 07:26 18.42956 113.39436 35913 ft 475 kts 220°
2026-05-05 07:27 18.37644 113.35288 35911 ft 476 kts 220°
2026-05-05 07:27 18.32301 113.31163 35910 ft 477 kts 219°
2026-05-05 07:28 18.26971 113.27067 35906 ft 477 kts 219°
2026-05-05 07:28 18.21608 113.22947 35908 ft 477 kts 219°
2026-05-05 07:29 18.16243 113.18827 35902 ft 477 kts 219°
2026-05-05 07:29 18.11754 113.15382 35905 ft 477 kts 219°
2026-05-05 07:30 18.06396 113.11272 35904 ft 477 kts 219°
2026-05-05 07:30 17.98355 113.05110 35896 ft 477 kts 220°
2026-05-05 07:31 17.92999 113.01009 35903 ft 476 kts 220°
2026-05-05 07:31 17.87647 112.96914 35900 ft 476 kts 219°
2026-05-05 07:32 17.82343 112.92820 35899 ft 476 kts 220°
2026-05-05 07:32 17.77054 112.88646 35900 ft 476 kts 220°
2026-05-05 07:33 17.71772 112.84470 35904 ft 476 kts 220°
2026-05-05 07:33 17.66478 112.80302 35897 ft 475 kts 220°
2026-05-05 07:34 17.61190 112.76148 35896 ft 476 kts 220°
2026-05-05 07:34 17.55887 112.71986 35901 ft 476 kts 220°
2026-05-05 07:35 17.50579 112.67823 35899 ft 477 kts 220°
2026-05-05 07:35 17.45256 112.63651 35899 ft 478 kts 220°
2026-05-05 07:36 17.39933 112.59482 35899 ft 478 kts 220°
2026-05-05 07:36 17.34605 112.55312 35899 ft 478 kts 220°
2026-05-05 07:37 17.29273 112.51143 35895 ft 478 kts 220°
2026-05-05 07:37 17.23942 112.46977 35896 ft 478 kts 220°
2026-05-05 07:38 17.18614 112.42816 35892 ft 479 kts 220°
2026-05-05 07:38 17.13273 112.38648 35889 ft 479 kts 220°
2026-05-05 07:39 17.07930 112.34481 35892 ft 479 kts 220°
2026-05-05 07:39 17.02587 112.30316 35894 ft 479 kts 220°
2026-05-05 07:40 16.97263 112.26195 35898 ft 480 kts 220°
2026-05-05 07:40 16.91857 112.22102 35892 ft 480 kts 219°
2026-05-05 07:41 16.86444 112.18021 35891 ft 480 kts 220°
2026-05-05 07:41 16.81038 112.13935 35881 ft 480 kts 219°
2026-05-05 07:42 16.75626 112.09841 35888 ft 480 kts 220°
2026-05-05 07:42 16.70210 112.05744 35895 ft 481 kts 220°
2026-05-05 07:43 16.64783 112.01642 35888 ft 482 kts 220°
2026-05-05 07:43 16.59348 111.97538 35889 ft 483 kts 220°
2026-05-05 07:44 16.53905 111.93430 35891 ft 483 kts 220°
2026-05-05 07:44 16.48457 111.89322 35886 ft 484 kts 219°
2026-05-05 07:45 16.43006 111.85214 35890 ft 484 kts 219°
2026-05-05 07:45 16.37547 111.81104 35887 ft 484 kts 219°
2026-05-05 07:46 16.32081 111.76991 35885 ft 485 kts 219°
2026-05-05 07:46 16.26614 111.72880 35886 ft 485 kts 219°
2026-05-05 07:47 16.21143 111.68769 35881 ft 485 kts 219°
2026-05-05 07:47 16.15671 111.64661 35888 ft 485 kts 219°
2026-05-05 07:48 16.10203 111.60557 35887 ft 485 kts 219°
2026-05-05 07:48 16.04737 111.56459 35884 ft 484 kts 219°
2026-05-05 07:49 15.99309 111.52391 35885 ft 484 kts 219°
2026-05-05 07:49 15.93848 111.48302 35885 ft 484 kts 219°
2026-05-05 07:50 15.88386 111.44215 35890 ft 483 kts 219°
2026-05-05 07:50 15.82934 111.40138 35886 ft 483 kts 219°
2026-05-05 07:51 15.77484 111.36066 35887 ft 482 kts 219°
2026-05-05 07:51 15.72041 111.32001 35887 ft 482 kts 219°
2026-05-05 07:52 15.66596 111.27937 35886 ft 482 kts 219°
2026-05-05 07:52 15.61154 111.23878 35882 ft 482 kts 219°
2026-05-05 07:53 15.55724 111.19831 35885 ft 480 kts 219°
2026-05-05 07:53 15.50302 111.15792 35883 ft 479 kts 219°
2026-05-05 07:54 15.44892 111.11765 35879 ft 478 kts 219°
2026-05-05 07:54 15.39485 111.07741 35887 ft 478 kts 219°
2026-05-05 07:55 15.34082 111.03716 35888 ft 478 kts 219°
2026-05-05 07:55 15.28710 110.99639 35889 ft 478 kts 219°
2026-05-05 07:56 15.23350 110.95549 35884 ft 479 kts 219°
2026-05-05 07:56 15.17986 110.91465 35886 ft 479 kts 219°
2026-05-05 07:57 15.12618 110.87388 35885 ft 479 kts 219°
2026-05-05 07:57 15.07248 110.83315 35886 ft 479 kts 219°
2026-05-05 07:58 15.01917 110.79273 35882 ft 479 kts 219°
2026-05-05 07:58 14.96545 110.75202 35880 ft 479 kts 219°
2026-05-05 07:59 14.91166 110.71129 35886 ft 479 kts 219°
2026-05-05 07:59 14.85778 110.67052 35885 ft 480 kts 219°
2026-05-05 08:00 14.80384 110.62972 35888 ft 481 kts 219°
2026-05-05 08:00 14.74987 110.58894 35888 ft 481 kts 219°
2026-05-05 08:01 14.69581 110.54810 35886 ft 481 kts 219°
2026-05-05 08:01 14.64175 110.50729 35882 ft 482 kts 218°
2026-05-05 08:02 14.58765 110.46648 35881 ft 482 kts 218°
2026-05-05 08:02 14.53345 110.42562 35886 ft 482 kts 218°
2026-05-05 08:03 14.47923 110.38476 35885 ft 483 kts 218°
2026-05-05 08:03 14.42495 110.34389 35885 ft 483 kts 218°
2026-05-05 08:04 14.37063 110.30301 35885 ft 483 kts 218°
2026-05-05 08:04 14.31630 110.26216 35885 ft 483 kts 218°
2026-05-05 08:05 14.26197 110.22132 35887 ft 483 kts 218°
2026-05-05 08:05 14.20766 110.18052 35884 ft 483 kts 218°
2026-05-05 08:06 14.15366 110.13998 35883 ft 483 kts 218°
2026-05-05 08:06 14.09934 110.09923 35878 ft 483 kts 218°
2026-05-05 08:07 14.04500 110.05847 35875 ft 483 kts 218°
2026-05-05 08:07 13.99060 110.01769 35878 ft 484 kts 218°
2026-05-05 08:08 13.93497 109.97860 35887 ft 485 kts 214°
2026-05-05 08:08 13.87759 109.94193 35883 ft 486 kts 213°
2026-05-05 08:09 13.82001 109.90535 35884 ft 486 kts 213°
2026-05-05 08:09 13.76252 109.86858 35882 ft 487 kts 214°
2026-05-05 08:10 13.70509 109.83169 35884 ft 487 kts 213°
2026-05-05 08:10 13.64769 109.79482 35884 ft 487 kts 213°
2026-05-05 08:11 13.59025 109.75797 35885 ft 486 kts 213°
2026-05-05 08:11 13.53287 109.72117 35880 ft 486 kts 213°
2026-05-05 08:12 13.47549 109.68440 35878 ft 486 kts 213°
2026-05-05 08:12 13.41820 109.64771 35880 ft 485 kts 213°
2026-05-05 08:13 13.36092 109.61104 35881 ft 485 kts 213°
2026-05-05 08:13 13.30357 109.57436 35885 ft 486 kts 213°
2026-05-05 08:14 13.24618 109.53767 35881 ft 486 kts 213°
2026-05-05 08:14 13.18909 109.50118 35886 ft 487 kts 213°
2026-05-05 08:15 13.13160 109.46447 35888 ft 487 kts 213°
2026-05-05 08:15 13.07610 109.42500 35883 ft 485 kts 220°
2026-05-05 08:16 13.02351 109.38163 35892 ft 485 kts 220°
2026-05-05 08:16 12.97106 109.33818 35899 ft 485 kts 220°
2026-05-05 08:17 12.91819 109.29495 35895 ft 486 kts 220°
2026-05-05 08:17 12.86518 109.25189 35893 ft 486 kts 220°
2026-05-05 08:18 12.81213 109.20888 35902 ft 486 kts 220°
2026-05-05 08:18 12.76805 109.17315 35900 ft 486 kts 220°
2026-05-05 08:19 12.71499 109.13015 35896 ft 487 kts 219°
2026-05-05 08:19 12.66185 109.08713 35915 ft 487 kts 219°
2026-05-05 08:20 12.60007 109.03710 35904 ft 488 kts 219°
2026-05-05 08:20 12.55543 109.00096 35903 ft 488 kts 219°
2026-05-05 08:21 12.50220 108.95789 35926 ft 488 kts 219°
2026-05-05 08:21 12.44889 108.91477 35919 ft 488 kts 219°
2026-05-05 08:22 12.39559 108.87170 35915 ft 488 kts 219°
2026-05-05 08:22 12.34226 108.82863 35933 ft 489 kts 220°
2026-05-05 08:23 12.28926 108.78586 35934 ft 489 kts 219°
2026-05-05 08:23 12.23591 108.74283 35937 ft 488 kts 219°
2026-05-05 08:24 12.18260 108.69985 35941 ft 488 kts 219°
2026-05-05 08:24 12.12933 108.65691 35943 ft 487 kts 219°
2026-05-05 08:25 12.07599 108.61394 35784 ft 492 kts 219°
2026-05-05 08:25 12.04902 108.59223 35421 ft 494 kts 219°
2026-05-05 08:25 12.02208 108.57054 35075 ft 491 kts 218°
2026-05-05 08:26 11.99531 108.54900 34733 ft 489 kts 219°
2026-05-05 08:26 11.96860 108.52751 34394 ft 488 kts 218°
2026-05-05 08:26 11.94216 108.50623 34064 ft 488 kts 218°
2026-05-05 08:26 11.91553 108.48481 33704 ft 487 kts 218°
2026-05-05 08:27 11.88887 108.46337 33321 ft 487 kts 218°
2026-05-05 08:27 11.86224 108.44197 32952 ft 488 kts 218°
2026-05-05 08:27 11.83546 108.42044 32602 ft 493 kts 218°
2026-05-05 08:27 11.80868 108.39893 32250 ft 496 kts 219°
2026-05-05 08:28 11.78168 108.37690 31894 ft 496 kts 221°
2026-05-05 08:28 11.75672 108.35281 31523 ft 492 kts 226°
2026-05-05 08:28 11.73400 108.32683 31178 ft 489 kts 231°
2026-05-05 08:28 11.71393 108.29891 30819 ft 487 kts 235°
2026-05-05 08:29 11.69473 108.27060 30484 ft 484 kts 236°
2026-05-05 08:29 11.67556 108.24238 30140 ft 483 kts 235°
2026-05-05 08:29 11.65639 108.21445 29672 ft 479 kts 235°
2026-05-05 08:30 11.61827 108.15951 28436 ft 470 kts 234°
2026-05-05 08:30 11.59943 108.13245 27835 ft 466 kts 234°
2026-05-05 08:30 11.58098 108.10599 27268 ft 462 kts 234°
2026-05-05 08:30 11.56246 108.07944 26686 ft 458 kts 234°
2026-05-05 08:31 11.54404 108.05305 26114 ft 455 kts 234°
2026-05-05 08:31 11.52579 108.02691 25589 ft 451 kts 234°
2026-05-05 08:31 11.50766 108.00092 25053 ft 448 kts 234°
2026-05-05 08:31 11.48967 107.97516 24535 ft 444 kts 234°
2026-05-05 08:32 11.47182 107.94959 23962 ft 442 kts 234°
2026-05-05 08:32 11.45398 107.92403 23283 ft 443 kts 234°
2026-05-05 08:32 11.43609 107.89841 22533 ft 444 kts 234°
2026-05-05 08:32 11.41818 107.87278 21801 ft 444 kts 234°
2026-05-05 08:33 11.40028 107.84715 21079 ft 444 kts 234°
2026-05-05 08:33 11.38238 107.82154 20427 ft 442 kts 234°
2026-05-05 08:33 11.36471 107.79626 20037 ft 434 kts 234°
2026-05-05 08:33 11.34738 107.77148 19362 ft 434 kts 234°
2026-05-05 08:34 11.32985 107.74642 18685 ft 434 kts 234°
2026-05-05 08:34 11.31232 107.72136 18000 ft 434 kts 234°
2026-05-05 08:34 11.29481 107.69637 17234 ft 433 kts 234°
2026-05-05 08:34 11.27736 107.67140 16504 ft 432 kts 234°
2026-05-05 08:35 11.26015 107.64680 15804 ft 431 kts 234°
2026-05-05 08:35 11.24256 107.62174 15098 ft 430 kts 234°
2026-05-05 08:35 11.22530 107.59716 14611 ft 423 kts 234°
2026-05-05 08:35 11.20855 107.57331 14193 ft 415 kts 234°
2026-05-05 08:36 11.19197 107.54970 13889 ft 405 kts 234°
2026-05-05 08:36 11.17573 107.52658 13537 ft 397 kts 234°
2026-05-05 08:36 11.15978 107.50386 13068 ft 392 kts 234°
2026-05-05 08:36 11.14412 107.48157 12576 ft 389 kts 234°
2026-05-05 08:37 11.12847 107.45928 12080 ft 385 kts 234°
2026-05-05 08:37 11.11292 107.43715 11605 ft 382 kts 234°
2026-05-05 08:37 11.09797 107.41588 11392 ft 352 kts 233°
2026-05-05 08:37 11.08432 107.39643 11094 ft 325 kts 233°
2026-05-05 08:38 11.07141 107.37807 10675 ft 316 kts 233°
2026-05-05 08:38 11.05928 107.35964 10361 ft 311 kts 240°
2026-05-05 08:38 11.05043 107.33966 10093 ft 309 kts 249°
2026-05-05 08:38 11.04355 107.31908 9798 ft 306 kts 251°
2026-05-05 08:39 11.03719 107.29843 9454 ft 305 kts 252°
2026-05-05 08:39 11.03090 107.27787 9134 ft 304 kts 252°
2026-05-05 08:39 11.02458 107.25742 8816 ft 302 kts 252°
2026-05-05 08:39 11.01824 107.23713 8528 ft 300 kts 252°
2026-05-05 08:40 11.01185 107.21693 8251 ft 299 kts 252°
2026-05-05 08:40 11.00548 107.19690 7968 ft 297 kts 252°
2026-05-05 08:40 10.99912 107.17699 7649 ft 295 kts 252°
2026-05-05 08:40 10.99277 107.15717 7332 ft 294 kts 252°
2026-05-05 08:41 10.98644 107.13746 7038 ft 293 kts 252°
2026-05-05 08:41 10.98010 107.11782 6736 ft 291 kts 252°
2026-05-05 08:41 10.97383 107.09827 6442 ft 290 kts 252°
2026-05-05 08:41 10.96761 107.07886 6176 ft 288 kts 252°
2026-05-05 08:42 10.96144 107.05958 5916 ft 285 kts 252°
2026-05-05 08:42 10.95532 107.04045 5639 ft 284 kts 252°
2026-05-05 08:42 10.94926 107.02161 5369 ft 284 kts 252°
2026-05-05 08:42 10.94312 107.00253 5109 ft 283 kts 252°
2026-05-05 08:43 10.93704 106.98365 4803 ft 269 kts 252°
2026-05-05 08:43 10.93147 106.96637 4515 ft 253 kts 252°
2026-05-05 08:43 10.92604 106.94951 4318 ft 248 kts 252°
2026-05-05 08:43 10.92067 106.93295 4146 ft 246 kts 252°
2026-05-05 08:44 10.91531 106.91641 3859 ft 247 kts 252°
2026-05-05 08:44 10.90990 106.89972 3650 ft 241 kts 252°
2026-05-05 08:44 10.90489 106.88424 3639 ft 226 kts 252°
2026-05-05 08:44 10.90009 106.86939 3602 ft 210 kts 252°
2026-05-05 08:45 10.89613 106.85578 3636 ft 206 kts 254°
2026-05-05 08:45 10.89172 106.84164 3462 ft 213 kts 251°
2026-05-05 08:45 10.88662 106.82754 3210 ft 210 kts 249°
2026-05-05 08:45 10.88160 106.81420 2944 ft 201 kts 249°
2026-05-05 08:46 10.87664 106.80102 2695 ft 202 kts 249°
2026-05-05 08:46 10.87165 106.78766 2424 ft 201 kts 249°
2026-05-05 08:46 10.86670 106.77444 2204 ft 197 kts 249°
2026-05-05 08:46 10.86201 106.76185 1934 ft 184 kts 249°
2026-05-05 08:47 10.85766 106.75029 1696 ft 164 kts 247°
2026-05-05 08:47 10.85371 106.73982 1518 ft 157 kts 247°
2026-05-05 08:47 10.84974 106.72927 1316 ft 161 kts 245°
2026-05-05 08:47 10.84554 106.71847 1125 ft 165 kts 246°
2026-05-05 08:48 10.84147 106.70736 879 ft 164 kts 248°
2026-05-05 08:48 10.83755 106.69677 696 ft 159 kts 246°
2026-05-05 08:48 10.83363 106.68651 515 ft 157 kts 245°
2026-05-05 08:48 10.82966 106.67593 359 ft 165 kts 245°
2026-05-05 08:49 10.82566 106.66521 112 ft 156 kts 246°
2026-05-05 08:49 10.82198 106.65546 47 ft 124 kts 251°
2026-05-05 08:49 10.81972 106.64955 43 ft 60 kts 249°
2026-05-05 08:49 10.81857 106.64656 43 ft 41 kts 249°
2026-05-05 08:50 10.81735 106.64415 44 ft 37 kts 229°
2026-05-05 08:50 10.81571 106.64289 44 ft 22 kts 184°
2026-05-05 08:50 10.81452 106.64319 44 ft 16 kts 160°
2026-05-05 08:50 10.81349 106.64360 44 ft 16 kts 159°
2026-05-05 08:51 10.81254 106.64406 44 ft 12 kts 126°
2026-05-05 08:51 10.81267 106.64492 45 ft 13 kts 69°
2026-05-05 08:51 10.81302 106.64589 45 ft 15 kts 69°
2026-05-05 08:51 10.81340 106.64689 45 ft 15 kts 69°
2026-05-05 08:52 10.81378 106.64789 45 ft 15 kts 69°
2026-05-05 08:52 10.81415 106.64888 45 ft 15 kts 69°
2026-05-05 08:52 10.81453 106.64988 45 ft 15 kts 69°
2026-05-05 08:52 10.81490 106.65088 45 ft 15 kts 69°
2026-05-05 08:53 10.81527 106.65188 44 ft 15 kts 69°
2026-05-05 08:53 10.81565 106.65287 44 ft 15 kts 69°
2026-05-05 08:53 10.81603 106.65387 44 ft 15 kts 69°
2026-05-05 08:53 10.81640 106.65486 44 ft 15 kts 69°
2026-05-05 08:54 10.81678 106.65586 44 ft 15 kts 69°
2026-05-05 08:54 10.81716 106.65685 44 ft 15 kts 69°
2026-05-05 08:54 10.81708 106.65788 44 ft 15 kts 113°
2026-05-05 08:54 10.81684 106.65890 44 ft 16 kts 82°
2026-05-05 08:55 10.81721 106.66002 44 ft 17 kts 68°
2026-05-05 08:55 10.81764 106.66114 44 ft 17 kts 69°
2026-05-05 08:55 10.81806 106.66227 44 ft 17 kts 69°
2026-05-05 08:55 10.81849 106.66339 44 ft 17 kts 69°
2026-05-05 08:56 10.81887 106.66444 44 ft 10 kts 81°
2026-05-05 08:56 10.81840 106.66490 44 ft 8 kts 157°
2026-05-05 08:56 10.81812 106.66500 44 ft 2 kts 160°
2026-05-05 08:56 10.81811 106.66500 44 ft 0 kts 160°